Back to catalog

SL-16 DEB

AliveLEO
NORAD 29100·DEBRIS·🇷🇺 Russia

Launched Mar 26, 1993 from Baikonur Cosmodrome

Loading…

Next Passes (next 24 hours)

TLE

FreshSource: Space-Track

Epoch: Sep 14, 2026, 09:14 UTC

1 29100U 93016AP  26257.38531974  .00000300  00000-0  18453-3 0  9990
2 29100  70.7249 243.8693 0076915 308.2992  51.1226 14.12400166244012

Track SL-16 DEB in real time with AllMySat

Download on the App Store